sat.trackr.live / text

‹ back to catalog

SKYKRAFT-1

NORAD 55041 · 2023-001AJ

PAYLOAD ACTIVE UNKNOWN

§ Identity

Operator
Country
AUS
Launch date
2023-01-03
Launch site
AFETR
Launch vehicle
Mass (kg)
RCS (m²)

External: N2YO · Heavens-Above · Gunter

§ Orbital elements

Epoch: 2026-05-25T04:13:25.597344Z

Period
92.05 min
Inclination
97.3189°
Eccentricity
0.0005455
Mean motion
15.64334629 rev/d
Perigee alt
371.5 km
Apogee alt
378.8 km
Semi-major
6,753.3 km
B*
4.7008e-4
RAAN
221.5312°
Arg perigee
147.2262°
Mean anomaly
212.9336°
Rev number
18,945

§ Raw data

SKYKRAFT-11 55041U 23001AJ  26145.17599071  .00044977  00000+0  47008-3 0  99902 55041  97.3189 221.5312 0005455 147.2262 212.9336 15.64334629189459

JSON: /api/v1/satellites/55041 · /tle

For live sub-satellite position, see the globe view (requires WebGL).

§ Visibility from observer

Set your observer location to see the next 7 days of passes ≥ 10°. The values pass through the URL so the page stays shareable.

No JS? Fill the form by hand. The geolocation button needs JavaScript.

§ Radio — SatNOGS DB

ModeDescriptionDownlinkUplink
LoRa Mode U - LoRa 400.450 MHz

1 transmitter · refreshed weekly from db.satnogs.org